Terminal Aerodrome Forecast
Issued by NWS

Home | Current Version | Previous Version | Text Only | Print | Product List | Glossary On
Versions: 1 2 3 4 5 6 7 8 9 10 11 12 13 14 15 16 17 18 19 20 21 22 23 24 25 26 27 28
000
FTUS44 KLZK 201900 AAA
TAFHRO
TAF AMD
KHRO 201934Z 2020/2118 14004KT P6SM OVC025
     FM210600 14004KT 5SM BR SCT007 OVC020
      TEMPO 2109/2113 2SM BR BKN007
     FM211500 15008KT P6SM SCT025 BKN060=

USA.gov is the U.S. government's official web portal to all federal, state and local government web resources and services.